Time,TemperatureF,DewpointF,PressureIn,WindDirection,WindDirectionDegrees,WindSpeedMPH,WindSpeedGustMPH,Humidity,HourlyPrecipIn,Conditions,Clouds,dailyrainin,SoftwareType,DateUTC
2013-04-24 00:01:00,53.0,41.0,-100.00,ESE,110,5.0,-999.0,63,-99.99,,,-99.99,,2013-04-24 04:01:00,
2013-04-24 00:03:00,53.0,41.0,-100.00,ESE,110,4.0,-999.0,64,-99.99,,,-99.99,,2013-04-24 04:03:00,
2013-04-24 00:12:00,53.0,41.0,-100.00,ESE,110,4.0,-999.0,64,-99.99,,,-99.99,,2013-04-24 04:12:00,
2013-04-24 00:23:00,53.0,41.0,-100.00,ESE,110,5.0,-999.0,64,-99.99,,,-99.99,,2013-04-24 04:23:00,
2013-04-24 00:33:00,52.0,41.0,-100.00,ESE,115,4.0,-999.0,65,-99.99,,,-99.99,,2013-04-24 04:33:00,
2013-04-24 00:43:00,52.0,41.0,-100.00,ESE,115,4.0,-999.0,65,-99.99,,,-99.99,,2013-04-24 04:43:00,
2013-04-24 00:53:00,52.0,42.0,-100.00,ESE,106,5.0,-999.0,66,-99.99,,,-99.99,,2013-04-24 04:53:00,
2013-04-24 01:02:00,52.0,42.0,-100.00,ESE,121,3.0,-999.0,67,-99.99,,,-99.99,,2013-04-24 05:02:00,
2013-04-24 01:12:00,52.0,42.0,-100.00,ESE,121,3.0,-999.0,67,-99.99,,,-99.99,,2013-04-24 05:12:00,
2013-04-24 01:22:00,52.0,42.0,-100.00,East,93,4.0,-999.0,68,-99.99,,,-99.99,,2013-04-24 05:22:00,
2013-04-24 01:32:00,51.0,42.0,-100.00,ENE,75,5.0,-999.0,72,-99.99,,,-99.99,,2013-04-24 05:32:00,
2013-04-24 01:42:00,51.0,42.0,-100.00,ENE,75,5.0,-999.0,72,-99.99,,,-99.99,,2013-04-24 05:42:00,
2013-04-24 01:52:00,51.0,42.0,-100.00,East,95,5.0,-999.0,72,-99.99,,,-99.99,,2013-04-24 05:52:00,
2013-04-24 02:02:00,51.0,42.0,-100.00,East,101,4.0,-999.0,73,-99.99,,,-99.99,,2013-04-24 06:02:00,
2013-04-24 02:12:00,51.0,42.0,-100.00,East,101,4.0,-999.0,73,-99.99,,,-99.99,,2013-04-24 06:12:00,
2013-04-24 02:22:00,50.0,42.0,-100.00,ESE,103,5.0,-999.0,74,-99.99,,,-99.99,,2013-04-24 06:22:00,
2013-04-24 02:33:00,50.0,43.0,-100.00,ESE,102,4.0,-999.0,75,-99.99,,,-99.99,,2013-04-24 06:33:00,
2013-04-24 02:42:00,50.0,43.0,-100.00,ESE,102,4.0,-999.0,75,-99.99,,,-99.99,,2013-04-24 06:42:00,
2013-04-24 02:52:00,49.0,43.0,-100.00,ESE,114,4.0,-999.0,79,-99.99,,,-99.99,,2013-04-24 06:52:00,
2013-04-24 03:02:00,49.0,44.0,-100.00,SSE,148,5.0,-999.0,81,-99.99,,,-99.99,,2013-04-24 07:02:00,
2013-04-24 03:11:00,49.0,44.0,-100.00,SSE,148,5.0,-999.0,81,-99.99,,,-99.99,,2013-04-24 07:11:00,
2013-04-24 03:22:00,49.0,44.0,-100.00,SE,146,7.0,-999.0,84,-99.99,,,-99.99,,2013-04-24 07:22:00,
2013-04-24 03:32:00,49.0,45.0,-100.00,SE,135,6.0,-999.0,85,-99.99,,,-99.99,,2013-04-24 07:32:00,
2013-04-24 03:42:00,49.0,45.0,-100.00,SE,135,6.0,-999.0,85,-99.99,,,-99.99,,2013-04-24 07:42:00,
2013-04-24 03:52:00,49.0,45.0,-100.00,SE,127,6.0,-999.0,86,-99.99,,,-99.99,,2013-04-24 07:52:00,
2013-04-24 04:02:00,48.0,45.0,-100.00,SE,142,6.0,-999.0,88,-99.99,,,-99.99,,2013-04-24 08:02:00,
2013-04-24 04:12:00,48.0,45.0,-100.00,SE,142,6.0,-999.0,88,-99.99,,,-99.99,,2013-04-24 08:12:00,
2013-04-24 04:21:00,48.0,45.0,-100.00,SSE,156,6.0,-999.0,89,-99.99,,,-99.99,,2013-04-24 08:21:00,
2013-04-24 04:33:00,49.0,46.0,-100.00,SSE,163,5.0,-999.0,89,-99.99,,,-99.99,,2013-04-24 08:33:00,
2013-04-24 04:42:00,49.0,46.0,-100.00,SSE,163,5.0,-999.0,89,-99.99,,,-99.99,,2013-04-24 08:42:00,
2013-04-24 04:52:00,48.0,45.0,-100.00,SSE,148,7.0,-999.0,89,-99.99,,,-99.99,,2013-04-24 08:52:00,
2013-04-24 05:02:00,48.0,45.0,-100.00,SSE,151,6.0,-999.0,90,-99.99,,,-99.99,,2013-04-24 09:02:00,
2013-04-24 05:11:00,48.0,45.0,-100.00,SSE,151,6.0,-999.0,90,-99.99,,,-99.99,,2013-04-24 09:11:00,
2013-04-24 05:21:00,48.0,46.0,-100.00,SSE,159,5.0,-999.0,89,-99.99,,,-99.99,,2013-04-24 09:21:00,
2013-04-24 05:33:00,49.0,45.0,-100.00,SSE,157,5.0,-999.0,88,-99.99,,,-99.99,,2013-04-24 09:33:00,
2013-04-24 05:42:00,49.0,45.0,-100.00,SSE,157,5.0,-999.0,88,-99.99,,,-99.99,,2013-04-24 09:42:00,
2013-04-24 05:53:00,48.0,45.0,-100.00,SSE,159,5.0,-999.0,88,-99.99,,,-99.99,,2013-04-24 09:53:00,
2013-04-24 06:02:00,49.0,45.0,-100.00,SSE,160,5.0,-999.0,87,-99.99,,,-99.99,,2013-04-24 10:02:00,
2013-04-24 06:12:00,49.0,45.0,-100.00,SSE,160,5.0,-999.0,87,-99.99,,,-99.99,,2013-04-24 10:12:00,
2013-04-24 06:22:00,49.0,45.0,-100.00,SE,137,6.0,-999.0,87,-99.99,,,-99.99,,2013-04-24 10:22:00,
2013-04-24 06:32:00,48.0,45.0,-100.00,SSE,149,7.0,-999.0,87,-99.99,,,-99.99,,2013-04-24 10:32:00,
2013-04-24 06:42:00,48.0,45.0,-100.00,SSE,149,7.0,-999.0,87,-99.99,,,-99.99,,2013-04-24 10:42:00,
2013-04-24 06:53:00,48.0,45.0,-100.00,SSE,150,7.0,-999.0,86,-99.99,,,-99.99,,2013-04-24 10:53:00,
2013-04-24 07:02:00,48.0,45.0,-100.00,SE,145,7.0,-999.0,86,-99.99,,,-99.99,,2013-04-24 11:02:00,
2013-04-24 07:11:00,48.0,45.0,-100.00,SE,145,7.0,-999.0,86,-99.99,,,-99.99,,2013-04-24 11:11:00,
2013-04-24 07:22:00,49.0,45.0,-100.00,SE,146,6.0,-999.0,86,-99.99,,,-99.99,,2013-04-24 11:22:00,
2013-04-24 07:32:00,49.0,45.0,-100.00,SSE,165,7.0,-999.0,86,-99.99,,,-99.99,,2013-04-24 11:32:00,
2013-04-24 07:42:00,49.0,45.0,-100.00,SSE,165,7.0,-999.0,86,-99.99,,,-99.99,,2013-04-24 11:42:00,
2013-04-24 07:53:00,49.0,45.0,-100.00,South,176,8.0,-999.0,85,-99.99,,,-99.99,,2013-04-24 11:53:00,
2013-04-24 08:02:00,50.0,46.0,-100.00,South,188,7.0,-999.0,86,-99.99,,,-99.99,,2013-04-24 12:02:00,
2013-04-24 08:11:00,50.0,46.0,-100.00,South,188,7.0,-999.0,86,-99.99,,,-99.99,,2013-04-24 12:11:00,
2013-04-24 08:22:00,50.0,46.0,-100.00,South,190,9.0,-999.0,86,-99.99,,,-99.99,,2013-04-24 12:22:00,
2013-04-24 08:32:00,50.0,46.0,-100.00,South,189,10.0,-999.0,86,-99.99,,,-99.99,,2013-04-24 12:32:00,
2013-04-24 08:42:00,50.0,46.0,-100.00,South,189,10.0,-999.0,86,-99.99,,,-99.99,,2013-04-24 12:42:00,
2013-04-24 08:52:00,51.0,47.0,-100.00,SSW,202,8.0,-999.0,85,-99.99,,,-99.99,,2013-04-24 12:52:00,
2013-04-24 09:01:00,51.0,47.0,-100.00,SSW,208,9.0,-999.0,84,-99.99,,,-99.99,,2013-04-24 13:01:00,
2013-04-24 09:12:00,51.0,47.0,-100.00,SSW,208,9.0,-999.0,84,-99.99,,,-99.99,,2013-04-24 13:12:00,
2013-04-24 09:22:00,52.0,47.0,-100.00,SSW,203,10.0,-999.0,84,-99.99,,,-99.99,,2013-04-24 13:22:00,
2013-04-24 09:32:00,52.0,47.0,-100.00,SSW,207,9.0,-999.0,83,-99.99,,,-99.99,,2013-04-24 13:32:00,
2013-04-24 09:41:00,52.0,47.0,-100.00,SSW,207,9.0,-999.0,83,-99.99,,,-99.99,,2013-04-24 13:41:00,
2013-04-24 09:52:00,54.0,48.0,-100.00,SSW,200,7.0,-999.0,79,-99.99,,,-99.99,,2013-04-24 13:52:00,
2013-04-24 10:01:00,55.0,48.0,-100.00,SSW,197,8.0,-999.0,78,-99.99,,,-99.99,,2013-04-24 14:01:00,
2013-04-24 10:11:00,55.0,48.0,-100.00,SSW,197,8.0,-999.0,78,-99.99,,,-99.99,,2013-04-24 14:11:00,
2013-04-24 10:21:00,55.0,48.0,-100.00,South,188,8.0,-999.0,77,-99.99,,,-99.99,,2013-04-24 14:21:00,
2013-04-24 10:32:00,57.0,49.0,-100.00,South,183,8.0,-999.0,74,-99.99,,,-99.99,,2013-04-24 14:32:00,
2013-04-24 10:41:00,57.0,49.0,-100.00,South,183,8.0,-999.0,74,-99.99,,,-99.99,,2013-04-24 14:41:00,
2013-04-24 10:52:00,57.0,49.0,-100.00,South,173,8.0,-999.0,74,-99.99,,,-99.99,,2013-04-24 14:52:00,
2013-04-24 11:01:00,58.0,49.0,-100.00,South,171,8.0,-999.0,71,-99.99,,,-99.99,,2013-04-24 15:01:00,
2013-04-24 11:11:00,58.0,49.0,-100.00,South,171,8.0,-999.0,71,-99.99,,,-99.99,,2013-04-24 15:11:00,
2013-04-24 11:22:00,59.0,50.0,-100.00,South,178,7.0,-999.0,69,-99.99,,,-99.99,,2013-04-24 15:22:00,
2013-04-24 11:33:00,60.0,50.0,-100.00,South,183,9.0,-999.0,67,-99.99,,,-99.99,,2013-04-24 15:33:00,
2013-04-24 11:43:00,60.0,50.0,-100.00,South,183,9.0,-999.0,67,-99.99,,,-99.99,,2013-04-24 15:43:00,
2013-04-24 11:53:00,61.0,49.0,-100.00,South,189,10.0,-999.0,65,-99.99,,,-99.99,,2013-04-24 15:53:00,
2013-04-24 12:03:00,62.0,50.0,-100.00,SSW,193,12.0,-999.0,63,-99.99,,,-99.99,,2013-04-24 16:03:00,
2013-04-24 12:12:00,62.0,50.0,-100.00,SSW,193,12.0,-999.0,63,-99.99,,,-99.99,,2013-04-24 16:12:00,
2013-04-24 12:23:00,63.0,50.0,-100.00,SSW,196,11.0,-999.0,61,-99.99,,,-99.99,,2013-04-24 16:23:00,
2013-04-24 12:32:00,64.0,50.0,-100.00,SSW,199,10.0,-999.0,60,-99.99,,,-99.99,,2013-04-24 16:32:00,
2013-04-24 12:42:00,64.0,50.0,-100.00,SSW,199,10.0,-999.0,60,-99.99,,,-99.99,,2013-04-24 16:42:00,
2013-04-24 12:53:00,65.0,50.0,-100.00,South,172,10.0,-999.0,58,-99.99,,,-99.99,,2013-04-24 16:53:00,
2013-04-24 13:02:00,65.0,50.0,-100.00,SSE,149,12.0,-999.0,57,-99.99,,,-99.99,,2013-04-24 17:02:00,
2013-04-24 13:12:00,65.0,50.0,-100.00,SSE,149,12.0,-999.0,57,-99.99,,,-99.99,,2013-04-24 17:12:00,
2013-04-24 13:22:00,66.0,50.0,-100.00,SSE,156,11.0,-999.0,56,-99.99,,,-99.99,,2013-04-24 17:22:00,
2013-04-24 13:32:00,68.0,50.0,-100.00,SSE,157,11.0,-999.0,53,-99.99,,,-99.99,,2013-04-24 17:32:00,
2013-04-24 13:42:00,68.0,50.0,-100.00,SSE,157,11.0,-999.0,53,-99.99,,,-99.99,,2013-04-24 17:42:00,
2013-04-24 13:52:00,69.0,50.0,-100.00,South,174,12.0,-999.0,51,-99.99,,,-99.99,,2013-04-24 17:52:00,
2013-04-24 14:02:00,69.0,50.0,-100.00,South,172,12.0,-999.0,49,-99.99,,,-99.99,,2013-04-24 18:02:00,
2013-04-24 14:12:00,69.0,50.0,-100.00,South,172,12.0,-999.0,49,-99.99,,,-99.99,,2013-04-24 18:12:00,
2013-04-24 14:22:00,70.0,50.0,-100.00,South,175,14.0,-999.0,49,-99.99,,,-99.99,,2013-04-24 18:22:00,
2013-04-24 14:33:00,71.0,51.0,-100.00,SSE,167,13.0,-999.0,48,-99.99,,,-99.99,,2013-04-24 18:33:00,
2013-04-24 14:42:00,71.0,51.0,-100.00,SSE,167,13.0,-999.0,48,-99.99,,,-99.99,,2013-04-24 18:42:00,
2013-04-24 14:52:00,71.0,51.0,-100.00,South,176,12.0,-999.0,48,-99.99,,,-99.99,,2013-04-24 18:52:00,
2013-04-24 15:02:00,72.0,51.0,-100.00,South,178,14.0,-999.0,47,-99.99,,,-99.99,,2013-04-24 19:02:00,
2013-04-24 15:11:00,72.0,51.0,-100.00,South,178,14.0,-999.0,47,-99.99,,,-99.99,,2013-04-24 19:11:00,
2013-04-24 15:22:00,72.0,51.0,-100.00,South,175,16.0,-999.0,46,-99.99,,,-99.99,,2013-04-24 19:22:00,
2013-04-24 15:32:00,73.0,51.0,-100.00,South,178,14.0,-999.0,45,-99.99,,,-99.99,,2013-04-24 19:32:00,
2013-04-24 15:42:00,73.0,51.0,-100.00,South,178,14.0,-999.0,45,-99.99,,,-99.99,,2013-04-24 19:42:00,
2013-04-24 15:52:00,74.0,51.0,-100.00,South,171,13.0,-999.0,44,-99.99,,,-99.99,,2013-04-24 19:52:00,
2013-04-24 16:02:00,74.0,50.0,-100.00,South,178,14.0,-999.0,42,-99.99,,,-99.99,,2013-04-24 20:02:00,
2013-04-24 16:11:00,74.0,50.0,-100.00,South,178,14.0,-999.0,42,-99.99,,,-99.99,,2013-04-24 20:11:00,
2013-04-24 16:22:00,76.0,47.0,-100.00,SSW,202,14.0,-999.0,36,-99.99,,,-99.99,,2013-04-24 20:22:00,
2013-04-24 16:32:00,76.0,46.0,-100.00,SSW,197,15.0,-999.0,33,-99.99,,,-99.99,,2013-04-24 20:32:00,
2013-04-24 16:42:00,76.0,46.0,-100.00,SSW,197,15.0,-999.0,33,-99.99,,,-99.99,,2013-04-24 20:42:00,
2013-04-24 16:52:00,76.0,45.0,-100.00,SSW,197,19.0,-999.0,32,-99.99,,,-99.99,,2013-04-24 20:52:00,
2013-04-24 17:02:00,76.0,45.0,-100.00,SSW,198,17.0,-999.0,33,-99.99,,,-99.99,,2013-04-24 21:02:00,
2013-04-24 17:11:00,76.0,45.0,-100.00,SSW,198,17.0,-999.0,33,-99.99,,,-99.99,,2013-04-24 21:11:00,
2013-04-24 17:22:00,76.0,45.0,-100.00,SSW,199,16.0,-999.0,33,-99.99,,,-99.99,,2013-04-24 21:22:00,
2013-04-24 17:33:00,76.0,46.0,-100.00,SSW,194,15.0,-999.0,34,-99.99,,,-99.99,,2013-04-24 21:33:00,
2013-04-24 17:42:00,76.0,46.0,-100.00,SSW,194,15.0,-999.0,34,-99.99,,,-99.99,,2013-04-24 21:42:00,
2013-04-24 17:53:00,76.0,46.0,-100.00,SSW,196,16.0,-999.0,34,-99.99,,,-99.99,,2013-04-24 21:53:00,
2013-04-24 18:03:00,76.0,46.0,-100.00,SSW,196,17.0,-999.0,35,-99.99,,,-99.99,,2013-04-24 22:03:00,
2013-04-24 18:12:00,76.0,46.0,-100.00,SSW,196,17.0,-999.0,35,-99.99,,,-99.99,,2013-04-24 22:12:00,
2013-04-24 18:22:00,76.0,47.0,-100.00,SSW,197,17.0,-999.0,36,-99.99,,,-99.99,,2013-04-24 22:22:00,
2013-04-24 18:33:00,75.0,47.0,-100.00,SSW,192,18.0,-999.0,36,-99.99,,,-99.99,,2013-04-24 22:33:00,
2013-04-24 18:42:00,75.0,47.0,-100.00,SSW,192,18.0,-999.0,36,-99.99,,,-99.99,,2013-04-24 22:42:00,
2013-04-24 18:52:00,75.0,48.0,-100.00,SSW,195,16.0,-999.0,37,-99.99,,,-99.99,,2013-04-24 22:52:00,
2013-04-24 19:02:00,75.0,48.0,-100.00,SSW,192,19.0,-999.0,38,-99.99,,,-99.99,,2013-04-24 23:02:00,
2013-04-24 19:12:00,75.0,48.0,-100.00,SSW,192,19.0,-999.0,38,-99.99,,,-99.99,,2013-04-24 23:12:00,
2013-04-24 19:21:00,75.0,48.0,-100.00,SSW,199,18.0,-999.0,39,-99.99,,,-99.99,,2013-04-24 23:21:00,
2013-04-24 19:32:00,75.0,49.0,-100.00,SSW,198,18.0,-999.0,40,-99.99,,,-99.99,,2013-04-24 23:32:00,
2013-04-24 19:42:00,75.0,49.0,-100.00,SSW,198,18.0,-999.0,40,-99.99,,,-99.99,,2013-04-24 23:42:00,
2013-04-24 19:52:00,74.0,49.0,-100.00,SSW,203,17.0,-999.0,40,-99.99,,,-99.99,,2013-04-24 23:52:00,
2013-04-24 20:02:00,74.0,49.0,-100.00,SSW,203,15.0,-999.0,40,-99.99,,,-99.99,,2013-04-25 00:02:00,
2013-04-24 20:12:00,74.0,49.0,-100.00,SSW,203,15.0,-999.0,40,-99.99,,,-99.99,,2013-04-25 00:12:00,
2013-04-24 20:23:00,74.0,49.0,-100.00,SSW,211,15.0,-999.0,41,-99.99,,,-99.99,,2013-04-25 00:23:00,
2013-04-24 20:32:00,74.0,49.0,-100.00,SW,218,13.0,-999.0,41,-99.99,,,-99.99,,2013-04-25 00:32:00,
2013-04-24 20:42:00,74.0,49.0,-100.00,SW,218,13.0,-999.0,41,-99.99,,,-99.99,,2013-04-25 00:42:00,
2013-04-24 20:52:00,73.0,49.0,-100.00,SW,219,14.0,-999.0,42,-99.99,,,-99.99,,2013-04-25 00:52:00,
2013-04-24 21:02:00,73.0,49.0,-100.00,SW,221,13.0,-999.0,42,-99.99,,,-99.99,,2013-04-25 01:02:00,
2013-04-24 21:11:00,73.0,49.0,-100.00,SW,221,13.0,-999.0,42,-99.99,,,-99.99,,2013-04-25 01:11:00,
2013-04-24 21:23:00,74.0,49.0,-100.00,SW,231,16.0,-999.0,41,-99.99,,,-99.99,,2013-04-25 01:23:00,
2013-04-24 21:32:00,73.0,49.0,-100.00,SW,230,16.0,-999.0,41,-99.99,,,-99.99,,2013-04-25 01:32:00,
2013-04-24 21:42:00,73.0,49.0,-100.00,SW,230,16.0,-999.0,41,-99.99,,,-99.99,,2013-04-25 01:42:00,
2013-04-24 21:53:00,73.0,49.0,-100.00,WSW,238,12.0,-999.0,42,-99.99,,,-99.99,,2013-04-25 01:53:00,
2013-04-24 22:02:00,73.0,49.0,-100.00,SW,234,13.0,-999.0,43,-99.99,,,-99.99,,2013-04-25 02:02:00,
2013-04-24 22:11:00,73.0,49.0,-100.00,SW,234,13.0,-999.0,43,-99.99,,,-99.99,,2013-04-25 02:11:00,
2013-04-24 22:22:00,72.0,50.0,-100.00,WSW,237,11.0,-999.0,45,-99.99,,,-99.99,,2013-04-25 02:22:00,
2013-04-24 22:32:00,72.0,50.0,-100.00,SW,233,11.0,-999.0,46,-99.99,,,-99.99,,2013-04-25 02:32:00,
2013-04-24 22:42:00,72.0,50.0,-100.00,SW,233,11.0,-999.0,46,-99.99,,,-99.99,,2013-04-25 02:42:00,
2013-04-24 22:52:00,72.0,50.0,-100.00,SW,233,11.0,-999.0,46,-99.99,,,-99.99,,2013-04-25 02:52:00,
2013-04-24 23:02:00,71.0,51.0,-100.00,WSW,237,14.0,-999.0,49,-99.99,,,-99.99,,2013-04-25 03:02:00,
2013-04-24 23:11:00,71.0,51.0,-100.00,WSW,237,14.0,-999.0,49,-99.99,,,-99.99,,2013-04-25 03:11:00,
2013-04-24 23:22:00,71.0,51.0,-100.00,WSW,242,12.0,-999.0,50,-99.99,,,-99.99,,2013-04-25 03:22:00,
2013-04-24 23:33:00,70.0,51.0,-100.00,WSW,253,10.0,-999.0,50,-99.99,,,-99.99,,2013-04-25 03:33:00,
2013-04-24 23:43:00,70.0,51.0,-100.00,WSW,253,10.0,-999.0,50,-99.99,,,-99.99,,2013-04-25 03:43:00,
2013-04-24 23:52:00,67.0,50.0,-100.00,WNW,298,25.0,-999.0,54,-99.99,,,-99.99,,2013-04-25 03:52:00,